Location: Haliburton Scout Reserve
(45.0900°N, 78.3200°W)
Time: 00:03:00
(UTC-04:00)

IDEFIX/ARIANE 42P - Visible Passes

Search period start: 01 November 2014 00:00
Search period end: 10 November 2014 23:00
Orbit: 786 x 804 km, 98.3° (Epoch: 31 October)

Date Brightness Start Highest point End Pass type
(mag) Time Alt. Az. Time Alt. Az. Time Alt. Az.
01 Nov 4.2 18:58:46 13° ENE 18:59:35 13° ENE 19:02:02 10° NNE visible
01 Nov 2.9 20:39:36 55° N 20:39:36 55° N 20:43:40 10° NNW visible
01 Nov 5.5 22:20:26 12° WNW 22:20:26 12° WNW 22:21:08 10° WNW visible
02 Nov 3.0 19:11:16 43° NE 19:11:16 43° NE 19:15:22 10° N visible
02 Nov 4.9 20:52:06 19° WNW 20:52:06 19° WNW 20:54:21 10° NW visible
03 Nov 3.5 18:42:57 28° NE 18:42:57 28° NE 18:46:50 10° N visible
03 Nov 4.2 20:23:47 30° NW 20:23:47 30° NW 20:26:46 10° NNW visible
04 Nov 4.0 18:14:37 18° ENE 18:14:37 18° ENE 18:17:56 10° NNE visible
04 Nov 3.6 19:55:27 40° NNW 19:55:27 40° NNW 19:58:50 10° NNW visible
05 Nov 4.4 17:46:17 10° ENE 17:46:49 11° NE 17:47:48 10° NE visible
05 Nov 3.3 19:27:07 42° N 19:27:07 42° N 19:30:39 10° N visible
05 Nov 5.4 21:07:57 13° WNW 21:07:57 13° WNW 21:08:56 10° NW visible
06 Nov 3.4 18:58:47 33° NE 18:58:47 33° NE 19:02:15 10° N visible
06 Nov 4.8 20:39:37 20° NW 20:39:37 20° NW 20:41:41 10° NW visible
07 Nov 3.8 18:30:27 22° NE 18:30:27 22° NE 18:33:35 10° NNE visible
07 Nov 4.2 20:11:17 29° NW 20:11:17 29° NW 20:13:55 10° NNW visible
08 Nov 4.2 18:02:07 14° NE 18:02:07 14° NE 18:04:24 10° NNE visible
08 Nov 3.7 19:42:57 34° NNW 19:42:57 34° NNW 19:45:52 10° NNW visible
09 Nov 3.6 19:14:36 32° NNE 19:14:36 32° NNE 19:17:35 10° N visible
09 Nov 5.3 20:55:26 14° NW 20:55:26 14° NW 20:56:27 10° NW visible
10 Nov 3.8 18:46:15 25° NNE 18:46:15 25° NNE 18:49:04 10° N visible
10 Nov 4.7 20:27:05 20° NW 20:27:05 20° NW 20:28:55 10° NNW visible
